Regional Weather Roundup
Issued by NWS Jackson, KY

Home | Current Version | Previous Version | Graphics & Text | Print | Product List | Glossary On
Versions: 1 2 3 4 5 6 7 8 9 10 11 12 13 14 15 16 17 18 19 20 21 22 23 24 25 26 27 28
000
ASUS43 KJKL 230210
RWRJKL

EAST KENTUCKY HOURLY WEATHER ROUNDUP
NATIONAL WEATHER SERVICE JACKSON KY
1000 PM EDT MON MAY 22 2017

NOTE: "FAIR" INDICATES FEW OR NO CLOUDS BELOW 12,000 FEET WITH
NO SIGNIFICANT WEATHER AND/OR OBSTRUCTIONS TO VISIBILITY.

* THESE REPORTS ARE NOT UNDER NWS QUALITY CONTROL AND MAY NOT
  REPORT WEATHER SUCH AS PRECIPITATION AND FOG.

KYZ079-080-083-085-087-088-110-112-115-119-120-230300
...EASTERN KENTUCKY...

CITY           SKY/WX    TMP DP  RH WIND       PRES   REMARKS
JACKSON        CLOUDY    58  51  78 CALM      30.02S
LONDON         CLOUDY    60  51  72 NE5       30.00F
SOMERSET*      CLOUDY    59  52  77 NE5       30.01F
MONTICELLO*    CLOUDY    60  55  83 W7        30.01
WILLIAMSBURG*  CLOUDY    59  55  88 NE5       30.00S
MIDDLESBORO*   CLOUDY    61  57  86 NW5       30.00F
HARLAN APT*    PTCLDY    61  54  77 CALM      30.01F
PIKE CO APT*     N/A     59  53  81 NE6       30.03F
BIG SANDY APT* CLOUDY    57  54  89 NE5       30.03F
MOREHEAD APT*  CLOUDY    59  50  72 CALM      30.04F
$$

KYZ035-036-041-042-044-050-067-078-099-230300
...CENTRAL KENTUCKY...

CITY           SKY/WX    TMP DP  RH WIND       PRES   REMARKS
MT STERLING*   CLOUDY    55  54  94 CALM      30.04S
FLEMING/MASON* CLOUDY    59  50  72 E3        30.04S
DANVILLE*      CLOUDY    57  52  82 CALM      30.03R
LEXINGTON      CLOUDY    61  47  59 E6        30.02S
FRANKFORT      CLOUDY    60  51  72 CALM      30.00S
LOUISVILLE     CLOUDY    66  49  54 SE5       30.00S
LEBANON*         N/A     63  50  63 CALM      30.02R
GLASGOW*       CLOUDY    62  54  74 CALM      29.99S
BOWLING GREEN  CLOUDY    65  57  75 NE3       29.99S
$$

KYZ091>093-OHZ055-061-077-WVZ005-015-034-035-042-230300
...SOUTHERN OHIO/WEST VIRGINIA...

CITY           SKY/WX    TMP DP  RH WIND       PRES   REMARKS
COVINGTON      CLOUDY    57  46  66 SE3       30.02S
COLUMBUS       CLEAR     62  46  55 SE3       30.02F
DAYTON         PTCLDY    63  44  50 SE7       30.02S
WILMINGTON     CLOUDY    57  49  74 SE3       30.03S
HUNTINGTON     CLOUDY    58  53  84 E5        30.02F
CHARLESTON     CLOUDY    57  53  86 SE3       30.04S
PINEVILLE*     CLOUDY    56  55  95 MISG      30.09S
BECKLEY        CLOUDY    57  52  83 NE3       30.07S
BLUEFIELD      CLOUDY    54  50  86 CALM      30.08R
LOGAN CO APT*    N/A     59  54  82 CALM      30.04S
$$

VAZ002-007-008-TNZ017-027-036-066-071-230300
...SOUTHWEST VIRGINIA/EAST TENNESSEE...

CITY           SKY/WX    TMP DP  RH WIND       PRES   REMARKS
WISE*          PTCLDY    57  55  94 NE6       30.07F
JONESVILLE*      N/A     61  57  88 CALM      30.01F
ABINGDON*      MOCLDY    65  59  82 CALM      30.02F
BRISTOL        MOCLDY    66  60  81 CALM      29.99F
MORRISTOWN*    MOCLDY    66  63  88 CALM      29.96F
SEVIERVILLE*   CLEAR     64  63  94 CALM      29.95F
KNOXVILLE      CLOUDY    68  62  81 NE5       29.94F
LAFOLLETTE*    CLEAR     61  55  82 CALM      30.00F
OAK RIDGE      MOCLDY    67  56  67 CALM      29.97F
CROSSVILLE     MOCLDY    63  55  75 NE6       30.00S
NASHVILLE      CLOUDY    68  54  60 NE6       29.98R
$$

...KEY TO REMARKS...
VSB - VISIBILITY IN MILES
WCI - WIND CHILL INDEX
HX  - HEAT INDEX

$$




USA.gov is the U.S. government's official web portal to all federal, state and local government web resources and services.